CW5091 Weather Reports


Display with metric or nautical units.
time (UTC)temp
F
wind
direction
speed
MPH
gust
MPH
rain 1hr
in
rain 24hr
in
rain mn
in
humidity
%
barometer
mb
20170629104511 50 153 0.0 0.0 0.00 0.00 0.00 60 1019.1
20170629102958 50 153 0.0 0.0 0.00 0.00 0.00 58 1019.1
20170629101452 51 153 0.0 0.0 0.00 0.00 0.00 55 1019.0
20170629095948 51 153 0.0 1.0 0.00 0.00 0.00 54 1019.0
20170629094457 52 153 0.0 1.0 0.00 0.00 0.00 50 1018.8
20170629092947 52 153 0.0 0.0 0.00 0.00 0.00 50 1018.8
20170629091449 52 153 0.0 1.0 0.00 0.00 0.00 52 1018.7
20170629085939 53 153 0.0 0.0 0.00 0.00 0.00 50 1018.6
20170629084439 54 153 0.0 1.0 0.00 0.00 0.00 48 1018.5
20170629082937 54 153 0.0 0.0 0.00 0.00 0.00 47 1018.3
20170629081436 54 153 0.0 0.0 0.00 0.00 0.00 46 1018.3
20170629075934 54 153 0.0 0.0 0.00 0.00 0.00 48 1018.3
20170629074434 54 153 0.0 0.0 0.00 0.00 0.00 48 1018.3
20170629072930 55 153 0.0 0.0 0.00 0.00 0.00 46 1018.2
20170629071430 55 153 0.0 1.0 0.00 0.00 0.00 45 1018.2
20170629065924 56 153 0.0 0.0 0.00 0.00 0.00 42 1018.0
20170629064424 56 153 0.0 0.0 0.00 0.00 0.00 45 1018.0
20170629062927 58 153 0.0 0.0 0.00 0.00 0.00 47 1018.0
20170629061430 58 153 0.0 0.0 0.00 0.00 0.00 47 1017.8
20170629055923 59 153 0.0 0.0 0.00 0.00 0.00 46 1017.6
20170629054423 60 153 0.0 0.0 0.00 0.00 0.00 45 1017.4
20170629052928 61 153 0.0 0.0 0.00 0.00 0.00 44 1017.5
20170629051423 62 153 0.0 0.0 0.00 0.00 0.00 44 1017.4
20170629045922 63 153 0.0 1.0 0.00 0.00 0.00 42 1017.3
20170629044421 65 153 0.0 0.0 0.00 0.00 0.00 39 1017.0
20170629042921 68 153 0.0 1.0 0.00 0.00 0.00 35 1016.9
20170629041419 69 153 0.0 1.0 0.00 0.00 0.00 35 1016.8
20170629035919 69 153 0.0 0.0 0.00 0.00 0.00 35 1016.8
20170629034419 72 153 0.0 1.0 0.00 0.00 0.00 28 1016.7
20170629032918 71 96 0.0 2.0 0.00 0.00 0.00 29 1016.7
20170629031431 71 73 0.0 1.0 0.00 0.00 0.00 30 1016.7
20170629025916 73 73 0.0 1.0 0.00 0.00 0.00 27 1016.7
20170629024425 74 73 0.0 1.0 0.00 0.00 0.00 28 1016.7
20170629022921 76 73 0.0 1.0 0.00 0.00 0.00 22 1016.5
20170629021415 77 73 0.0 1.0 0.00 0.00 0.00 24 1016.3
20170629015916 78 180 0.0 2.0 0.00 0.00 0.00 23 1016.1
20170629014424 79 212 0.0 4.0 0.00 0.00 0.00 20 1015.9
20170629012914 79 270 0.0 1.0 0.00 0.00 0.00 21 1015.8
20170629011415 80 279 0.0 4.0 0.00 0.00 0.00 20 1016.0
20170629005911 81 236 0.0 3.0 0.00 0.00 0.00 21 1015.7
20170629004412 82 261 1.0 4.0 0.00 0.00 0.00 21 1015.6
20170629002916 82 259 1.0 4.0 0.00 0.00 0.00 20 1015.8
20170629001412 82 242 1.0 4.0 0.00 0.00 0.00 20 1015.8
20170628235923 82 248 0.0 4.0 0.00 0.00 0.00 21 1015.7
20170628234408 83 244 0.0 3.0 0.00 0.00 0.00 18 1016.0
20170628232920 83 241 1.0 4.0 0.00 0.00 0.00 19 1015.9
20170628231411 83 196 1.0 3.0 0.00 0.00 0.00 18 1015.9
20170628225905 84 273 1.0 4.0 0.00 0.00 0.00 18 1015.8
20170628224417 84 246 1.0 6.0 0.00 0.00 0.00 18 1016.0
20170628222902 84 234 1.0 10.0 0.00 0.00 0.00 20 1016.0
20170628221400 84 273 0.0 4.0 0.00 0.00 0.00 19 1016.1
20170628215902 85 234 1.0 5.0 0.00 0.00 0.00 17 1016.3
20170628214357 85 262 1.0 4.0 0.00 0.00 0.00 19 1016.3
20170628212910 84 191 1.0 8.0 0.00 0.00 0.00 18 1016.4
20170628211357 84 277 1.0 5.0 0.00 0.00 0.00 18 1016.5
20170628205852 84 153 0.0 3.0 0.00 0.00 0.00 16 1016.6
20170628204350 83 279 0.0 4.0 0.00 0.00 0.00 17 1016.7
20170628202850 82 67 0.0 2.0 0.00 0.00 0.00 17 1016.8
20170628201353 83 217 1.0 3.0 0.00 0.00 0.00 17 1016.9
20170628195853 82 319 1.0 3.0 0.00 0.00 0.00 17 1017.1
20170628194351 83 288 0.0 3.0 0.00 0.00 0.00 16 1017.1
20170628192855 81 92 0.0 4.0 0.00 0.00 0.00 16 1017.2
20170628191345 80 22 1.0 3.0 0.00 0.00 0.00 16 1017.3
20170628185844 80 340 1.0 4.0 0.00 0.00 0.00 15 1017.3
20170628184339 80 188 1.0 3.0 0.00 0.00 0.00 15 1017.1
20170628182837 79 261 1.0 3.0 0.00 0.00 0.00 14 1017.2
20170628181331 78 186 0.0 3.0 0.00 0.00 0.00 14 1017.3
20170628175828 78 177 1.0 3.0 0.00 0.00 0.00 17 1017.2
20170628174333 77 153 1.0 5.0 0.00 0.00 0.00 16 1017.3
20170628172821 75 230 0.0 2.0 0.00 0.00 0.00 22 1017.4
20170628171317 75 209 1.0 3.0 0.00 0.00 0.00 23 1017.4
20170628165809 72 257 0.0 2.0 0.00 0.00 0.00 29 1017.3
20170628164308 71 244 0.0 2.0 0.00 0.00 0.00 26 1017.3
20170628162802 71 190 1.0 3.0 0.00 0.00 0.00 29 1017.5
20170628161315 68 211 0.0 2.0 0.00 0.00 0.00 36 1017.6
20170628155756 67 171 1.0 3.0 0.00 0.00 0.00 36 1017.7
20170628154248 65 169 0.0 2.0 0.00 0.00 0.00 37 1017.7
20170628152749 63 169 0.0 2.0 0.00 0.00 0.00 41 1017.7
20170628151238 61 167 0.0 2.0 0.00 0.00 0.00 45 1017.7
20170628145742 59 167 0.0 2.0 0.00 0.00 0.00 50 1017.8
20170628144234 57 167 0.0 0.0 0.00 0.00 0.00 50 1018.0
20170628142727 55 167 0.0 0.0 0.00 0.00 0.00 58 1017.9
20170628141221 53 167 0.0 0.0 0.00 0.00 0.00 61 1017.9
20170628135719 51 167 0.0 1.0 0.00 0.00 0.00 66 1017.8
20170628134224 49 167 0.0 1.0 0.00 0.00 0.00 64 1017.7
20170628132715 48 167 0.0 0.0 0.00 0.00 0.00 65 1017.7
20170628131211 47 167 0.0 0.0 0.00 0.00 0.00 66 1017.5
20170628125709 47 167 0.0 0.0 0.00 0.00 0.00 63 1017.4
20170628124206 47 167 0.0 0.0 0.00 0.00 0.00 58 1017.3
20170628122705 47 167 0.0 1.0 0.00 0.00 0.00 57 1017.3
20170628121201 48 167 0.0 1.0 0.00 0.00 0.00 58 1017.2
20170628115707 48 167 0.0 0.0 0.00 0.00 0.00 56 1017.1
20170628114158 49 167 0.0 1.0 0.00 0.00 0.00 56 1017.0
20170628112656 49 167 0.0 0.0 0.00 0.00 0.00 54 1017.0
20170628111152 50 167 0.0 0.0 0.00 0.00 0.00 54 1016.9
20170628105656 50 167 0.0 0.0 0.00 0.00 0.00 53 1016.8